TimeEST,TemperatureF,Dew PointF,Humidity,Sea Level PressureIn,VisibilityMPH,Wind Direction,Wind SpeedMPH,Gust SpeedMPH,PrecipitationIn,Events,Conditions,WindDirDegrees,DateUTC
12:54 AM,46.9,45.0,93,29.68,10.0,Calm,Calm,-,0.00,,Mostly Cloudy,0,2012-12-18 05:54:00
1:54 AM,45.0,44.1,97,29.69,10.0,Calm,Calm,-,N/A,,Mostly Cloudy,0,2012-12-18 06:54:00
2:11 AM,44.6,44.6,100,29.71,10.0,Calm,Calm,-,N/A,,Overcast,0,2012-12-18 07:11:00
2:54 AM,45.0,44.1,97,29.68,10.0,Calm,Calm,-,N/A,,Mostly Cloudy,0,2012-12-18 07:54:00
3:54 AM,45.0,44.1,97,29.68,10.0,NNW,4.6,-,N/A,,Overcast,340,2012-12-18 08:54:00
4:36 AM,46.4,44.6,93,29.70,10.0,NNW,4.6,-,0.00,,Overcast,340,2012-12-18 09:36:00
4:54 AM,45.0,44.1,97,29.68,10.0,NNW,4.6,-,0.00,,Overcast,340,2012-12-18 09:54:00
5:54 AM,43.0,42.1,97,29.70,10.0,NNW,4.6,-,0.01,,Clear,340,2012-12-18 10:54:00
6:54 AM,46.0,43.0,89,29.72,10.0,North,6.9,-,N/A,,Mostly Cloudy,350,2012-12-18 11:54:00
7:54 AM,44.1,39.0,82,29.75,10.0,NNW,13.8,21.9,N/A,,Partly Cloudy,330,2012-12-18 12:54:00
8:54 AM,45.0,33.1,63,29.77,10.0,NW,23.0,29.9,N/A,,Clear,320,2012-12-18 13:54:00
9:54 AM,46.9,32.0,56,29.79,10.0,NNW,24.2,32.2,N/A,,Clear,340,2012-12-18 14:54:00
10:54 AM,48.0,30.9,52,29.82,10.0,NNW,26.5,35.7,N/A,,Clear,330,2012-12-18 15:54:00
11:54 AM,48.0,30.0,50,29.83,10.0,NNW,26.5,34.5,N/A,,Clear,330,2012-12-18 16:54:00
12:54 PM,50.0,28.9,44,29.83,10.0,NNW,12.7,27.6,N/A,,Clear,340,2012-12-18 17:54:00
1:54 PM,51.1,28.0,41,29.83,10.0,NNW,17.3,25.3,N/A,,Clear,340,2012-12-18 18:54:00
2:54 PM,52.0,26.1,37,29.84,10.0,NNW,16.1,-,N/A,,Clear,340,2012-12-18 19:54:00
3:54 PM,51.1,27.0,39,29.87,10.0,North,11.5,-,N/A,,Clear,350,2012-12-18 20:54:00
4:54 PM,48.0,28.9,48,29.90,10.0,NNW,4.6,-,N/A,,Clear,330,2012-12-18 21:54:00
5:54 PM,43.0,28.9,58,29.91,10.0,NW,6.9,-,N/A,,Clear,310,2012-12-18 22:54:00
6:54 PM,43.0,28.9,58,29.94,10.0,WNW,8.1,-,N/A,,Clear,300,2012-12-18 23:54:00
7:54 PM,41.0,28.0,60,29.95,10.0,NNW,6.9,-,N/A,,Clear,340,2012-12-19 00:54:00
8:54 PM,37.9,30.0,73,29.95,10.0,Calm,Calm,-,N/A,,Clear,0,2012-12-19 01:54:00
9:54 PM,34.0,28.0,79,29.96,10.0,Calm,Calm,-,N/A,,Clear,0,2012-12-19 02:54:00
10:54 PM,33.1,28.9,85,29.96,10.0,Calm,Calm,-,N/A,,Clear,0,2012-12-19 03:54:00
11:54 PM,32.0,28.0,85,29.97,10.0,Calm,Calm,-,N/A,,Clear,0,2012-12-19 04:54:00